Notices

What's New in latest Release from April 7th, 2021:

- Updated Glossary, including Speed of Maximum Gust, and Total Hourly Precipitation

- Updated national and regional climate services offices contacts and prices information

- Addition of station inventory lists for 1981-2010, 1971-2000, and 1961-1990 Normals.

If you haven't already, please take our survey and provide feedback about our website: https://eccc.sondage-survey.ca/f/LanguageSelection.aspx?s=442ca660-fcf1-47c0-95a9-59707d6fd709

Hourly Data Report for August 19, 2019

TORONTO CITY
ONTARIO
Current Station Operator: ECCC - MSC

43°40'00.000" N
79°24'00.000" W
112.50 m
6158355
71508
XTO

Download Data

Hourly Data (August 2019)
Hourly Data Report for August 19, 2019
TIME
LST
Temp Definition
°C
Dew Point Definition
°C
Rel Hum Definition
%
Precip. Amount Definition
mm

Wind Dir Definition
10's deg

Wind Spd Definition
km/h
Visibility Definition
km
Stn Press Definition
kPa
Hmdx Definition


Wind Chill Definition


Weather Definition


00:00 22.9 18.7 77 0.0       99.71 29   LegendNANA
01:00 21.1 18.3 84 0.7       99.69 27   LegendNANA
02:00 20.7 18.0 84 0.0       99.78 27   LegendNANA
03:00 20.8 18.6 87 0.0       99.81 27   LegendNANA
04:00 21.2 18.8 87 0.2       99.85 28   LegendNANA
05:00 20.8 18.5 87 0.0       99.83 27   LegendNANA
06:00 20.7 18.5 88 0.0       99.92 27   LegendNANA
07:00 21.4 18.9 86 0.0       100.00 28   LegendNANA
08:00 23.4 17.8 71 0.0       100.06 29   LegendNANA
09:00 24.4 17.0 63 0.0       100.14 30   LegendNANA
10:00 25.0 16.9 61 0.0       100.22 30   LegendNANA
11:00 25.5 15.7 55 0.0       100.24 30   LegendNANA
12:00 26.6 15.2 50 0.0       100.25 31   LegendNANA
13:00 27.4 13.6 42 0.0       100.25 31   LegendNANA
14:00 27.4 12.1 39 0.0       100.23 30   LegendNANA
15:00 27.9 10.9 35 0.0       100.21 30   LegendNANA
16:00 27.4 10.2 34 0.0       100.23 29   LegendNANA
17:00 27.1 10.7 36 0.0       100.22 29   LegendNANA
18:00 26.5 9.6 34 0.0       100.22 28   LegendNANA
19:00 25.2 9.3 36 0.0       100.24 26   LegendNANA
20:00 23.1 9.7 43 0.0       100.28     LegendNANA
21:00 22.4 11.4 50 0.0       100.36     LegendNANA
22:00 20.6 11.8 57 0.0       100.43     LegendNANA
23:00 19.6 11.0 58 0.0       100.47     LegendNANA

Notes on Data Quality.

Legend

  • E = Estimated
  • M = Missing
  • NA = Not Available*
  • [empty] = Indicates an unobserved value
Date modified: